Orbital Elements at Epoch 2459200.5 (2020-Dec-17.0) TDB
Reference: JPL 20 (heliocentric ecliptic J2000)
Element | Value | Uncertainty (1-sigma) | Units |
e | .04734299211536776 | 4.0935e-08 | |
a | 2.338562015991954 | 1.0312e-08 | au |
q | 2.227847492907548 | 9.6714e-08 | au |
i | 6.992660008851076 | 4.7473e-06 | deg |
node | 3.636624893735767 | 3.2637e-05 | deg |
peri | 134.4941666898459 | 5.9923e-05 | deg |
M | 172.123551205867 | 4.8881e-05 | deg |
tp | 2458575.961003739499 (2019-Apr-02.46100374) | 0.00017714 | TDB |
period | 1306.236346383937 3.58 | 8.6401e-06 2.366e-08 | d yr |
n | .2756009668515123 | 1.823e-09 | deg/d |
Q | 2.44927653907636 | 1.08e-08 | au |
|
| | Orbit Determination Parameters
Additional Information
|